User: anonymous   Login
Location: New Plymouth
(39.0670°S, 174.0830°E)
Time: 03:16:25
(UTC+13:00)
Language:

Resurs 01 Rocket - Orbit

View from above orbital plane
View from above orbital plane
View from above satellite
View from above satellite

Ground track
Ground track

The orbit data is extracted from the following two-line orbital elements,

1 23343U 94074B   19289.23565767  .00000022  00000-0  10488-4 0  9998
2 23343  98.0381 338.8742 0006144 210.1163 190.0103 14.76794145342438
Epoch (UTC): 16 October 2019 05:39:20
Eccentricity: 0.0006144
inclination: 98.0381°
perigee height: 635 km
apogee height: 644 km
right ascension of ascending node: 338.8742°
argument of perigee: 210.1163°
revolutions per day: 14.76794145
mean anomaly at epoch: 190.0103°
orbit number at epoch: 34243

The dashed part of the orbit path shows where the satellite is in the earth's shadow,  

DLR